FW2316 Weather Reports


Display with metric or nautical units.
time (UTC)temp
F
wind
direction
speed
MPH
gust
MPH
rain 1hr
in
rain 24hr
in
rain mn
in
humidity
%
barometer
mb
20260903220036 62 61 3.0 5.0 0.00 0.28 0.04 77 1010.9
20260903215636 61 61 2.0 8.0 0.00 0.28 0.04 77 1011.0
20260903215036 61 61 3.0 8.0 0.00 0.28 0.04 77 1011.0
20260903214541 62 64 2.0 5.0 0.00 0.28 0.04 77 1011.0
20260903214037 61 63 2.0 5.0 0.00 0.28 0.04 79 1010.9
20260903213537 61 63 2.0 5.0 0.00 0.28 0.04 78 1010.9
20260903213043 61 60 3.0 6.0 0.00 0.28 0.04 76 1011.1
20260903212536 61 57 3.0 7.0 0.00 0.28 0.04 76 1011.0
20260903212036 61 55 4.0 7.0 0.00 0.31 0.04 77 1011.0
20260903211546 61 81 3.0 8.0 0.00 0.31 0.04 74 1011.0
20260903211035 61 65 2.0 6.0 0.00 0.31 0.04 75 1011.0
20260903210536 61 66 3.0 6.0 0.00 0.31 0.04 77 1011.0
20260903210036 62 329 1.0 5.0 0.00 0.31 0.04 78 1011.0
20260903205635 62 269 3.0 7.0 0.00 0.31 0.04 77 1011.0
20260903205035 62 236 2.0 7.0 0.00 0.31 0.04 73 1011.1
20260903204534 62 238 2.0 5.0 0.00 0.31 0.04 71 1010.9
20260903204036 62 238 3.0 5.0 0.00 0.31 0.04 70 1010.8
20260903203533 62 232 1.0 7.0 0.00 0.31 0.04 74 1010.8
20260903203033 62 234 3.0 7.0 0.00 0.31 0.04 73 1010.8
20260903202532 62 294 1.0 4.0 0.00 0.31 0.04 70 1010.7
20260903202032 63 294 2.0 8.0 0.00 0.31 0.04 70 1010.8
20260903201534 64 294 3.0 8.0 0.00 0.31 0.04 70 1010.7
20260903201031 64 246 2.0 5.0 0.00 0.31 0.04 70 1010.7
20260903200531 65 250 1.0 5.0 0.00 0.31 0.04 68 1010.8
20260903200030 64 223 1.0 3.0 0.00 0.31 0.04 70 1010.7
20260903195629 62 220 2.0 4.0 0.00 0.31 0.04 71 1010.7
20260903195033 62 220 1.0 4.0 0.00 0.31 0.04 70 1010.7
20260903194531 62 221 2.0 6.0 0.00 0.31 0.04 71 1010.8
20260903194030 62 205 0.0 6.0 0.00 0.31 0.04 71 1010.8
20260903193530 62 265 0.0 4.0 0.00 0.31 0.04 74 1010.8
20260903193030 62 322 1.0 5.0 0.00 0.31 0.04 70 1010.8
20260903192529 63 350 3.0 5.0 0.00 0.31 0.04 71 1010.7
20260903192030 63 288 1.0 3.0 0.00 0.31 0.04 70 1010.7
20260903191530 62 288 0.0 4.0 0.00 0.31 0.04 72 1010.7
20260903191028 62 288 1.0 8.0 0.00 0.31 0.04 72 1010.6
20260903190529 62 288 3.0 9.0 0.00 0.31 0.04 71 1010.7
20260903190027 62 246 3.0 7.0 0.00 0.31 0.04 72 1010.7
20260903185627 61 330 1.0 6.0 0.00 0.31 0.04 73 1010.7
20260903185025 61 333 0.0 6.0 0.00 0.31 0.04 73 1010.8
20260903184524 62 335 2.0 6.0 0.00 0.31 0.04 75 1010.7
20260903184023 61 5 2.0 6.0 0.00 0.31 0.04 78 1010.6
20260903183522 61 327 2.0 7.0 0.00 0.31 0.04 75 1010.6
20260903183021 60 98 1.0 4.0 0.00 0.31 0.04 77 1010.6
20260903182522 60 107 2.0 4.0 0.00 0.31 0.04 76 1010.6
20260903182019 59 113 0.0 2.0 0.00 0.31 0.04 78 1010.4
20260903181522 59 113 0.0 2.0 0.00 0.31 0.04 80 1010.5
20260903181020 59 113 0.0 0.0 0.00 0.31 0.04 81 1010.5
20260903180517 59 113 0.0 3.0 0.00 0.31 0.04 82 1010.4
20260903180018 59 113 0.0 3.0 0.00 0.31 0.04 82 1010.5
20260903175614 58 113 0.0 4.0 0.00 0.31 0.04 86 1010.5
20260903174512 57 123 1.0 4.0 0.00 0.31 0.04 86 1010.4
20260903174012 57 127 2.0 4.0 0.00 0.31 0.04 87 1010.5
20260903173513 57 147 0.0 3.0 0.00 0.31 0.04 88 1010.6
20260903173010 57 147 0.0 3.0 0.01 0.31 0.04 87 1010.6
20260903172509 56 148 0.0 5.0 0.01 0.31 0.04 86 1010.6
20260903172007 56 148 0.0 5.0 0.01 0.31 0.04 88 1010.6
20260903171509 56 153 0.0 2.0 0.01 0.31 0.04 88 1010.6
20260903171006 55 154 0.0 3.0 0.01 0.31 0.04 88 1010.6
20260903170505 55 154 0.0 3.0 0.01 0.31 0.04 88 1010.5
20260903170003 55 155 0.0 0.0 0.01 0.31 0.04 88 1010.5
20260903165602 55 155 0.0 2.0 0.01 0.31 0.04 87 1010.5
20260903165002 55 155 0.0 3.0 0.01 0.31 0.04 86 1010.6
20260903164502 54 155 1.0 3.0 0.01 0.31 0.04 87 1010.7
20260903164001 54 156 0.0 2.0 0.01 0.31 0.04 87 1010.7
20260903163600 54 156 0.0 2.0 0.01 0.31 0.04 89 1010.7
20260903163100 54 156 0.0 3.0 0.00 0.30 0.03 89 1010.6
20260903162559 53 156 1.0 7.0 0.00 0.30 0.03 89 1010.7
20260903162059 53 156 2.0 7.0 0.00 0.30 0.03 89 1010.6
20260903161558 54 105 0.0 4.0 0.00 0.30 0.03 88 1010.5
20260903161057 53 105 0.0 6.0 0.00 0.30 0.03 89 1010.6
20260903160556 53 105 1.0 6.0 0.00 0.30 0.03 90 1010.6
20260903160054 53 96 0.0 3.0 0.00 0.30 0.03 90 1010.5
20260903155552 52 96 0.0 3.0 0.00 0.30 0.03 91 1010.6
20260903154552 52 96 0.0 2.0 0.00 0.30 0.03 91 1010.5
20260903154052 52 96 0.0 4.0 0.00 0.30 0.03 91 1010.4
20260903153551 52 96 0.0 4.0 0.00 0.30 0.03 91 1010.4
20260903153101 52 95 0.0 6.0 0.00 0.30 0.03 91 1010.4
20260903152554 52 98 0.0 4.0 0.00 0.30 0.03 91 1010.5
20260903152056 52 98 0.0 3.0 0.00 0.30 0.03 92 1010.4
20260903151550 51 98 0.0 4.0 0.00 0.30 0.03 92 1010.4
20260903151048 51 98 0.0 4.0 0.01 0.30 0.03 92 1010.4
20260903150547 51 98 0.0 2.0 0.01 0.30 0.03 92 1010.4
20260903150047 51 98 0.0 3.0 0.01 0.30 0.03 92 1010.4
20260903145545 51 98 0.0 3.0 0.01 0.30 0.03 92 1010.5
20260903144545 51 98 0.0 2.0 0.01 0.30 0.03 92 1010.4
20260903144047 51 98 0.0 3.0 0.01 0.30 0.03 92 1010.4
20260903143545 51 98 0.0 3.0 0.02 0.30 0.03 93 1010.4
20260903143047 51 99 1.0 3.0 0.02 0.30 0.03 93 1010.3
20260903142542 51 99 1.0 3.0 0.02 0.30 0.03 93 1010.2
20260903142041 51 99 1.0 3.0 0.02 0.30 0.03 93 1010.2
20260903141541 51 99 0.0 4.0 0.02 0.30 0.03 92 1010.2
20260903141042 51 99 0.0 4.0 0.02 0.30 0.03 92 1010.2
20260903140540 51 99 0.0 3.0 0.01 0.28 0.02 92 1010.1
20260903140045 51 99 0.0 3.0 0.01 0.28 0.02 92 1010.2
20260903135539 51 99 0.0 3.0 0.02 0.28 0.02 92 1010.2
20260903134539 51 99 0.0 2.0 0.02 0.28 0.02 91 1010.2
20260903134038 51 99 0.0 2.0 0.02 0.28 0.02 91 1010.1
20260903133541 51 99 0.0 1.0 0.01 0.28 0.01 90 1010.1
20260903133041 51 99 0.0 2.0 0.01 0.28 0.01 89 1010.0
20260903132536 52 99 0.0 2.0 0.01 0.28 0.01 89 1009.8
20260903132035 52 99 0.0 4.0 0.01 0.28 0.01 88 1009.8
20260903131535 52 99 2.0 4.0 0.01 0.28 0.01 88 1009.8
20260903131038 52 142 1.0 3.0 0.01 0.28 0.01 88 1009.7
20260903130535 52 145 0.0 3.0 0.01 0.28 0.01 88 1009.7
20260903130041 52 147 0.0 4.0 0.01 0.28 0.01 88 1009.7
20260903125536 52 147 1.0 4.0 0.01 0.28 0.01 87 1009.7
20260903124545 52 143 2.0 5.0 0.00 0.27 0.00 87 1009.7
20260903124035 52 152 1.0 5.0 0.00 0.27 0.00 87 1009.6
20260903123532 52 150 1.0 4.0 0.00 0.27 0.00 86 1009.6
20260903123035 52 146 2.0 8.0 0.00 0.27 0.00 86 1009.4
20260903122533 52 128 1.0 5.0 0.00 0.27 0.00 86 1009.3
20260903122032 52 128 1.0 4.0 0.00 0.27 0.00 86 1009.3
20260903121537 52 128 1.0 4.0 0.00 0.27 0.00 87 1009.3
20260903121031 52 126 2.0 8.0 0.00 0.27 0.00 87 1009.3
20260903120532 52 133 2.0 8.0 0.00 0.27 0.00 88 1009.3
20260903120031 52 144 2.0 7.0 0.00 0.27 0.00 88 1009.3
20260903115529 51 119 1.0 5.0 0.00 0.27 0.00 88 1009.3
20260903114530 52 130 1.0 7.0 0.00 0.27 0.00 88 1009.2
20260903114029 52 134 1.0 4.0 0.00 0.27 0.00 88 1009.2
20260903113533 52 130 1.0 7.0 0.00 0.27 0.00 87 1009.2
20260903113029 52 123 1.0 4.0 0.00 0.27 0.00 87 1009.2
20260903112529 52 123 1.0 4.0 0.00 0.27 0.00 87 1009.2
20260903112028 52 123 1.0 4.0 0.00 0.27 0.00 88 1009.2
20260903111533 52 130 1.0 4.0 0.00 0.27 0.00 87 1009.2
20260903111024 52 125 0.0 6.0 0.00 0.27 0.00 87 1009.2
20260903110522 52 125 1.0 8.0 0.00 0.27 0.00 87 1009.2
20260903110021 52 165 2.0 8.0 0.00 0.27 0.00 88 1009.3
20260903105520 52 141 2.0 7.0 0.00 0.27 0.00 88 1009.3
20260903104518 52 130 2.0 4.0 0.00 0.27 0.00 88 1009.7
20260903104020 52 131 2.0 8.0 0.00 0.27 0.00 89 1009.3
20260903103516 51 130 2.0 8.0 0.00 0.27 0.00 89 1009.4
20260903103016 51 130 1.0 4.0 0.00 0.27 0.00 89 1009.3
20260903102516 51 130 0.0 3.0 0.00 0.27 0.00 89 1009.3
20260903102019 51 130 0.0 4.0 0.00 0.27 0.00 89 1009.3
20260903101514 51 130 1.0 4.0 0.00 0.27 0.00 89 1009.4
20260903101015 51 130 0.0 7.0 0.00 0.27 0.00 89 1009.3
20260903100515 51 130 1.0 7.0 0.00 0.27 0.00 89 1009.4
20260903100015 51 128 2.0 7.0 0.00 0.27 0.00 89 1009.4
20260903095516 51 128 0.0 4.0 0.00 0.27 0.00 89 1009.5
20260903095114 51 129 0.0 4.0 0.00 0.27 0.00 90 1009.4
20260903094517 51 128 0.0 7.0 0.00 0.27 0.00 90 1009.3
20260903094011 51 128 0.0 7.0 0.00 0.27 0.00 90 1009.2
20260903093512 51 126 1.0 4.0 0.00 0.27 0.00 90 1009.2
20260903093017 51 126 0.0 4.0 0.00 0.27 0.00 90 1009.2
20260903092512 51 126 1.0 5.0 0.00 0.27 0.00 90 1009.2
20260903091511 51 126 1.0 6.0 0.00 0.27 0.27 90 1009.1
20260903091010 51 126 1.0 6.0 0.00 0.27 0.27 91 1009.2
20260903090510 51 138 1.0 3.0 0.00 0.27 0.27 92 1009.1
20260903090018 51 138 1.0 4.0 0.00 0.27 0.27 92 1009.2
20260903085509 50 138 2.0 4.0 0.00 0.27 0.27 93 1009.2
20260903085011 50 141 0.0 4.0 0.00 0.27 0.27 93 1009.3
20260903084509 50 141 1.0 4.0 0.00 0.27 0.27 94 1009.1
20260903084009 49 141 1.0 4.0 0.00 0.27 0.27 94 1009.2
20260903083509 49 141 1.0 4.0 0.00 0.27 0.27 93 1009.4
20260903083008 50 141 0.0 2.0 0.00 0.27 0.27 93 1009.4
20260903082512 50 141 0.0 2.0 0.00 0.27 0.27 93 1009.4
20260903081507 50 141 0.0 3.0 0.00 0.27 0.27 94 1009.2
20260903081008 50 141 0.0 3.0 0.00 0.27 0.27 94 1009.1
20260903080507 50 141 0.0 2.0 0.00 0.27 0.27 95 1009.2
20260903080006 50 141 1.0 2.0 0.00 0.27 0.27 95 1009.2
20260903075507 49 141 1.0 2.0 0.00 0.27 0.27 95 1009.2
20260903075006 49 141 0.0 0.0 0.00 0.27 0.27 95 1009.2
20260903074506 49 141 0.0 1.0 0.00 0.27 0.27 95 1009.2
20260903074005 49 141 0.0 1.0 0.00 0.27 0.27 95 1009.1
20260903073505 49 141 0.0 2.0 0.00 0.27 0.27 96 1009.2
20260903073008 49 141 0.0 2.0 0.00 0.27 0.27 96 1009.2
20260903072505 49 141 0.0 5.0 0.00 0.27 0.27 96 1009.1
20260903071505 49 141 0.0 2.0 0.00 0.27 0.27 96 1009.0
20260903071005 49 141 0.0 2.0 0.00 0.27 0.27 96 1009.0
20260903070504 49 141 0.0 0.0 0.00 0.27 0.27 96 1008.9
20260903070006 49 141 0.0 0.0 0.00 0.27 0.27 96 1009.0
20260903065505 49 141 0.0 0.0 0.00 0.27 0.27 97 1009.0
20260903065003 49 141 0.0 1.0 0.00 0.27 0.27 96 1009.0
20260903064503 49 141 0.0 1.0 0.00 0.27 0.27 97 1009.1
20260903064003 49 141 0.0 1.0 0.00 0.27 0.27 96 1009.0
20260903063504 49 141 0.0 2.0 0.00 0.27 0.27 96 1009.0
20260903063004 49 141 0.0 4.0 0.00 0.27 0.27 96 1009.0
20260903062502 49 141 0.0 4.0 0.00 0.27 0.27 96 1009.0
20260903061503 49 141 0.0 0.0 0.00 0.27 0.27 96 1009.1
20260903061002 49 141 0.0 0.0 0.00 0.27 0.27 96 1009.0
20260903060503 49 141 0.0 0.0 0.00 0.27 0.27 96 1009.0
20260903060008 49 141 0.0 0.0 0.00 0.27 0.27 96 1009.1
20260903055504 49 141 0.0 0.0 0.00 0.27 0.27 96 1009.1
20260903055001 49 141 0.0 0.0 0.00 0.27 0.27 96 1009.0
20260903054501 49 141 0.0 0.0 0.00 0.27 0.27 96 1009.1
20260903054100 50 141 0.0 0.0 0.00 0.27 0.27 96 1009.0
20260903053600 50 141 0.0 0.0 0.00 0.27 0.27 96 1009.1
20260903053059 50 141 0.0 1.0 0.00 0.27 0.27 96 1009.0
20260903052558 50 141 0.0 1.0 0.00 0.27 0.27 96 1009.0
20260903051606 50 141 0.0 0.0 0.00 0.27 0.27 95 1009.0
20260903051058 50 141 0.0 0.0 0.00 0.27 0.27 95 1008.9
20260903050601 50 141 0.0 0.0 0.00 0.27 0.27 95 1008.9
20260903050057 51 141 0.0 0.0 0.00 0.27 0.27 95 1008.9
20260903045556 51 141 0.0 0.0 0.00 0.27 0.27 95 1008.9
20260903045056 51 141 0.0 0.0 0.00 0.27 0.27 95 1008.9
20260903044559 51 141 0.0 2.0 0.00 0.27 0.27 95 1008.8
20260903044056 51 141 0.0 2.0 0.00 0.27 0.27 95 1008.7
20260903043554 52 141 0.0 2.0 0.00 0.27 0.27 95 1008.8
20260903043052 52 141 1.0 3.0 0.00 0.27 0.27 95 1008.7
20260903042552 52 141 0.0 3.0 0.00 0.27 0.27 95 1008.7
20260903041552 52 141 0.0 2.0 0.00 0.27 0.27 95 1008.6
20260903041051 52 141 0.0 0.0 0.00 0.27 0.27 95 1008.6
20260903040553 52 141 0.0 0.0 0.00 0.27 0.27 94 1008.5
20260903040101 52 141 0.0 1.0 0.00 0.27 0.27 94 1008.6
20260903035550 53 141 0.0 1.0 0.00 0.27 0.27 94 1008.5
20260903035049 53 141 0.0 1.0 0.00 0.27 0.27 94 1008.4
20260903034549 53 141 0.0 1.0 0.00 0.27 0.27 94 1008.3
20260903034048 53 141 0.0 1.0 0.00 0.27 0.27 93 1008.3
20260903033546 53 141 0.0 0.0 0.00 0.27 0.27 93 1008.2
20260903033046 54 141 0.0 0.0 0.00 0.27 0.27 92 1008.2
20260903032548 54 141 0.0 1.0 0.00 0.27 0.27 92 1008.2
20260903031545 54 142 0.0 1.0 0.00 0.27 0.27 92 1008.2
20260903031044 55 141 0.0 2.0 0.00 0.27 0.27 91 1008.1
20260903030546 55 141 0.0 5.0 0.00 0.27 0.27 91 1008.0
20260903030044 55 142 1.0 7.0 0.00 0.27 0.27 91 1007.9
20260903025545 56 146 2.0 7.0 0.00 0.27 0.27 91 1007.8
20260903025044 56 152 1.0 6.0 0.00 0.27 0.27 91 1007.8
20260903024544 56 155 1.0 6.0 0.00 0.27 0.27 91 1007.6
20260903024045 56 158 2.0 7.0 0.00 0.27 0.27 91 1007.7
20260903023543 56 153 2.0 7.0 0.01 0.27 0.27 91 1007.8
20260903023053 56 163 3.0 7.0 0.02 0.27 0.27 91 1007.7
20260903022544 56 154 1.0 7.0 0.03 0.27 0.27 91 1007.6
20260903021544 56 153 1.0 9.0 0.04 0.27 0.27 90 1007.6
20260903021044 56 141 2.0 9.0 0.04 0.27 0.27 91 1007.6
20260903020544 56 134 2.0 8.0 0.05 0.27 0.27 91 1007.6
20260903020043 56 138 1.0 4.0 0.07 0.27 0.27 91 1007.6
20260903015543 57 138 1.0 4.0 0.09 0.27 0.27 92 1007.6
20260903015044 56 138 1.0 5.0 0.10 0.27 0.27 92 1007.5
20260903014551 56 138 2.0 7.0 0.11 0.27 0.27 93 1007.4
20260903014042 56 142 2.0 9.0 0.12 0.27 0.27 93 1007.4
20260903013542 56 144 3.0 9.0 0.11 0.26 0.26 93 1007.3
20260903013049 56 162 3.0 14.0 0.11 0.26 0.26 93 1007.2
20260903012542 56 155 4.0 14.0 0.10 0.25 0.25 93 1007.4
20260903011546 56 168 3.0 13.0 0.09 0.24 0.24 93 1007.2
20260903011044 56 170 7.0 11.0 0.08 0.23 0.23 93 1007.1
20260903010546 56 188 7.0 14.0 0.07 0.22 0.22 92 1006.9
20260903010047 57 210 7.0 14.0 0.06 0.21 0.21 92 1007.0
20260903005543 57 240 5.0 11.0 0.04 0.19 0.19 92 1006.9
20260903005043 58 207 7.0 18.0 0.03 0.18 0.18 90 1006.9
20260903004543 59 222 9.0 17.0 0.01 0.16 0.16 89 1006.8
20260903004041 59 240 4.0 9.0 0.00 0.15 0.15 87 1006.5
20260903003541 59 154 2.0 5.0 0.00 0.15 0.15 88 1005.8
20260903003041 59 150 0.0 2.0 0.00 0.15 0.15 88 1005.4
20260903002540 59 150 0.0 3.0 0.01 0.15 0.15 89 1005.4
20260903001538 59 150 0.0 5.0 0.01 0.15 0.15 89 1005.5
20260903001036 59 150 0.0 6.0 0.01 0.15 0.15 89 1005.5
20260903000536 59 151 2.0 6.0 0.01 0.15 0.15 88 1005.4
20260903000037 59 153 1.0 9.0 0.01 0.15 0.15 89 1005.4
20260902235537 59 155 4.0 9.0 0.01 0.15 0.15 90 1005.4
20260902235036 59 126 2.0 8.0 0.02 0.15 0.15 91 1005.4
20260902234550 59 134 4.0 7.0 0.03 0.15 0.15 92 1005.5
20260902234036 59 93 2.0 5.0 0.03 0.15 0.15 92 1005.6
20260902233536 59 78 0.0 5.0 0.04 0.15 0.15 93 1005.4
20260902233038 58 80 0.0 2.0 0.05 0.15 0.15 93 1005.4
20260902232535 58 80 0.0 6.0 0.06 0.14 0.14 93 1005.4
20260902231542 58 78 1.0 10.0 0.07 0.14 0.14 94 1005.4
20260902231035 58 78 3.0 10.0 0.08 0.14 0.14 93 1005.3
20260902230535 58 61 4.0 12.0 0.08 0.14 0.14 93 1005.5
20260902230034 58 44 6.0 11.0 0.09 0.14 0.14 93 1005.3
20260902225534 58 54 2.0 7.0 0.10 0.14 0.14 93 1005.5
20260902225033 58 67 1.0 5.0 0.09 0.13 0.13 93 1005.8
20260902224539 58 69 2.0 6.0 0.09 0.13 0.13 93 1005.9
20260902224034 58 57 3.0 6.0 0.09 0.12 0.12 92 1006.0
20260902223534 58 360 1.0 5.0 0.08 0.11 0.11 92 1006.0
20260902223034 58 334 1.0 5.0 0.07 0.10 0.10 92 1006.0
20260902222535 58 296 0.0 4.0 0.07 0.09 0.09 91 1006.0
20260902221534 59 285 0.0 3.0 0.06 0.08 0.08 91 1006.0
20260902221034 59 284 0.0 3.0 0.06 0.07 0.07 91 1005.9
20260902220533 59 284 0.0 3.0 0.05 0.06 0.06 90 1005.8